Location: Maiden
(35.5760°N, 81.2120°W)
Time: 17:19:09
(UTC-04:00)

Cosmos 1953 Rocket - Pass Details

Date: 14 June 2018
Orbit: 605 x 635 km, 82.5° (Epoch: 19 June)

Event Time Altitude Azimuth Distance (km) Brightness Sun altitude
Exits shadow 23:22:34 47° 244° (WSW) 809 4.1 -24.3°
Maximum altitude 23:23:16 53° 279° (W) 751 4.1 -24.4°
Drops below altitude 10° 23:27:31 10° 356° (N) 1,968 7.0 -24.9°
Sets 23:29:48 0° 2° (N) 2,881 7.9 -25.1°
